Weather History for Oklahoma City, OK

Change the Weather History Date:

Friday, August 3, 2012

  Actual Average Record
Temperature  
Mean Temperature 99 °F 84 °F  
Max Temperature 113 °F 95 °F 113 °F (2012)
Min Temperature 84 °F 73 °F 59 °F (1973)
Cooling Degree Days 34 19  
Month to date cooling degree days 97 57  
Year to date cooling degree days 1594 1256  
Since 1 June cooling degree days 1210  
Growing Degree Days 48 (Base 50)    
Moisture  
Dew Point 56 °F    
Average Humidity 28    
Maximum Humidity 44    
Minimum Humidity 12    
Precipitation  
Precipitation 0.00 in 0.10 in 1.82 in (1990)
Month to date precipitation 0.00 0.29  
Year to date precipitation 19.58 21.90  
Sea Level Pressure  
Sea Level Pressure 29.70 in    
Wind  
Wind Speed 16 mph (SSW)    
Max Wind Speed 24 mph    
Max Gust Speed 32 mph    
Visibility 10 miles    
Events      
T = Trace of Precipitation, MM = Missing Value Source: NWS Daily Summary

Daily Weather History Graph

Daily Weather History Graph

Search for Another Location

Airport:

Trip Planner

Search our weather history database for the weather conditions in past years. The results will help you decide how hot, cold, wet, or windy it might be!

Date:

Astronomy

Aug. 03, 2012 Rise Set
Actual Time 6:40 AM CDT 8:31 PM CDT
Civil Twilight 6:13 AM CDT 8:59 PM CDT
Nautical Twilight 5:39 AM CDT 9:32 PM CDT
Astronomical Twilight 5:03 AM CDT 10:08 PM CDT
Moon 9:18 PM CDT (8/3) 8:19 AM CDT (8/3)
Length of Visible Light 14h 46m
Length of Day
13h 50m
Full, 97% of the Moon is Illuminated
Aug 3
Full
Aug 9
Last Quarter
Aug 17
New
Aug 24
First Quarter
Aug 31
Full

Hourly Weather History & Observations

Time (CDT) Temp. Heat Index Dew Point Humidity Pressure Visibility Wind Dir Wind Speed Gust Speed Precip Events Conditions
12:52 AM 91.4 °F 89.9 °F 57.2 °F 31% 29.76 in 10.0 mi South 18.4 mph 23.0 mph N/A   Mostly Cloudy
1:52 AM 89.1 °F 87.7 °F 57.0 °F 34% 29.69 in 10.0 mi SSW 15.0 mph - N/A   Scattered Clouds
2:52 AM 88.0 °F 86.7 °F 57.0 °F 35% 29.69 in 10.0 mi South 12.7 mph - N/A   Mostly Cloudy
3:52 AM 87.1 °F 86.1 °F 57.9 °F 37% 29.69 in 10.0 mi South 16.1 mph - N/A   Mostly Cloudy
4:52 AM 86.0 °F 85.0 °F 57.9 °F 38% 29.69 in 10.0 mi South 16.1 mph - N/A   Mostly Cloudy
5:52 AM 84.9 °F 84.4 °F 59.0 °F 41% 29.70 in 10.0 mi SSW 15.0 mph - N/A   Mostly Cloudy
6:52 AM 84.0 °F 83.8 °F 59.0 °F 43% 29.72 in 10.0 mi South 12.7 mph - N/A   Mostly Cloudy
7:52 AM 84.9 °F 84.8 °F 60.1 °F 43% 29.73 in 10.0 mi South 11.5 mph - N/A   Mostly Cloudy
8:52 AM 86.0 °F 85.7 °F 60.1 °F 41% 29.74 in 10.0 mi SSW 11.5 mph - N/A   Scattered Clouds
9:52 AM 93.0 °F 91.7 °F 57.0 °F 30% 29.74 in 10.0 mi SSW 15.0 mph - N/A   Scattered Clouds
10:52 AM 98.1 °F 96.4 °F 55.9 °F 24% 29.74 in 10.0 mi SSW 13.8 mph - N/A   Partly Cloudy
11:52 AM 102.9 °F 101.4 °F 54.0 °F 20% 29.73 in 10.0 mi SSW 19.6 mph 25.3 mph N/A   Partly Cloudy
12:52 PM 107.1 °F 105.4 °F 54.0 °F 17% 29.72 in 10.0 mi South 16.1 mph 21.9 mph N/A   Partly Cloudy
1:52 PM 109.0 °F - 50.0 °F 14% 29.70 in 10.0 mi SW 18.4 mph 28.8 mph N/A   Mostly Cloudy
2:52 PM 109.9 °F - 48.9 °F 13% 29.69 in 10.0 mi SW 20.7 mph 27.6 mph N/A   Scattered Clouds
3:52 PM 111.0 °F - 46.9 °F 12% 29.68 in 10.0 mi SW 13.8 mph 23.0 mph N/A   Scattered Clouds
4:52 PM 111.0 °F - 48.9 °F 13% 29.67 in 10.0 mi South 13.8 mph 25.3 mph N/A   Scattered Clouds
5:52 PM 108.0 °F - 51.1 °F 15% 29.66 in 10.0 mi South 20.7 mph 26.5 mph N/A   Scattered Clouds
6:52 PM 105.8 °F - 51.8 °F 17% 29.65 in 10.0 mi South 16.1 mph 26.5 mph N/A   Scattered Clouds
7:52 PM 102.0 °F 100.1 °F 54.0 °F 20% 29.66 in 10.0 mi South 17.3 mph - N/A   Scattered Clouds
8:52 PM 98.6 °F 97.2 °F 55.4 °F 24% 29.68 in 10.0 mi SSE 13.8 mph - N/A   Scattered Clouds
9:52 PM 96.1 °F 96.4 °F 61.0 °F 31% 29.71 in 10.0 mi SSE 16.1 mph 26.5 mph N/A   Scattered Clouds
10:52 PM 93.0 °F 93.8 °F 62.1 °F 36% 29.71 in 10.0 mi South 18.4 mph 24.2 mph N/A   Partly Cloudy
11:52 PM 91.0 °F 91.5 °F 62.1 °F 38% 29.74 in 10.0 mi South 19.6 mph 25.3 mph N/A   Partly Cloudy